When you browse on this site, cookies collect data to enhance your experience and personalize the content and advertising you see.
Visit our Privacy Policy to learn more. By continuing to use the site, you agree to this use of cookies and data.
  • In Latvia
  • List of Countries
  • For 7 days
  • Water Temperature
  • Satellite Maps
  • Weather Map
  • Weather Widgets
  • user-avatar
    Login

    Hourly Weather Sharan

    Today, 20 June, Thursday

    Time Temperature Precipitation Wind Pressure Humidity
    00:00 +21°C° 0 mm 4 mps 586 mmHg 47%
    01:00 +20°C° 0 mm 3 mps 586 mmHg 48%
    02:00 +19°C° 0 mm 2 mps 585 mmHg 49%
    03:00 +20°C° 0 mm 1 mps 585 mmHg 51%
    04:00 +19°C° 0 mm 1 mps 585 mmHg 54%
    05:00 +16°C° 0 mm 0 mps 584 mmHg 56%
    06:00 +18°C° 0 mm 0 mps 585 mmHg 51%
    07:00 +19°C° 0 mm 0 mps 586 mmHg 45%
    08:00 +20°C° 0 mm 0 mps 587 mmHg 39%
    09:00 +22°C° 0 mm 0 mps 587 mmHg 34%
    10:00 +25°C° 0 mm 1 mps 588 mmHg 29%
    11:00 +27°C° 0 mm 1 mps 588 mmHg 24%
    12:00 +28°C° 0 mm 2 mps 588 mmHg 20%
    13:00 +29°C° 0 mm 3 mps 588 mmHg 17%
    14:00 +30°C° 0 mm 4 mps 588 mmHg 13%
    15:00 +30°C° 0 mm 4 mps 588 mmHg 12%
    16:00 +30°C° 0 mm 4 mps 588 mmHg 12%
    17:00 +30°C° 0 mm 4 mps 588 mmHg 12%
    18:00 +29°C° 0 mm 4 mps 587 mmHg 15%
    19:00 +27°C° 0 mm 5 mps 587 mmHg 19%
    20:00 +26°C° 0 mm 5 mps 587 mmHg 22%
    21:00 +25°C° 0 mm 4 mps 587 mmHg 29%
    22:00 +23°C° 0 mm 4 mps 587 mmHg 35%
    23:00 +22°C° 0 mm 4 mps 587 mmHg 42%

    Tomorrow, 21 June, Friday

    Time Temperature Precipitation Wind Pressure Humidity
    00:00 +21°C° 0 mm 3 mps 586 mmHg 44%
    01:00 +20°C° 0 mm 2 mps 586 mmHg 45%
    02:00 +20°C° 0 mm 2 mps 586 mmHg 47%
    03:00 +20°C° 0 mm 1 mps 586 mmHg 47%
    04:00 +20°C° 0 mm 1 mps 586 mmHg 48%
    05:00 +19°C° 0 mm 1 mps 585 mmHg 49%
    06:00 +20°C° 0 mm 1 mps 586 mmHg 46%
    07:00 +21°C° 0 mm 1 mps 587 mmHg 44%
    08:00 +22°C° 0 mm 1 mps 588 mmHg 41%
    09:00 +24°C° 0 mm 1 mps 588 mmHg 36%
    10:00 +26°C° 0 mm 1 mps 589 mmHg 31%
    11:00 +27°C° 0 mm 2 mps 589 mmHg 26%
    12:00 +28°C° 0 mm 3 mps 589 mmHg 23%
    13:00 +29°C° 0 mm 3 mps 589 mmHg 19%
    14:00 +30°C° 0 mm 4 mps 589 mmHg 16%
    15:00 +29°C° 0 mm 5 mps 589 mmHg 19%
    16:00 +29°C° 0 mm 6 mps 588 mmHg 23%
    17:00 +28°C° 0 mm 7 mps 588 mmHg 26%
    18:00 +27°C° 0 mm 7 mps 587 mmHg 33%
    19:00 +24°C° 0 mm 7 mps 587 mmHg 40%
    20:00 +22°C° 0 mm 6 mps 587 mmHg 47%
    21:00 +22°C° 0 mm 5 mps 587 mmHg 47%
    22:00 +22°C° 0 mm 4 mps 587 mmHg 47%
    23:00 +21°C° 0 mm 3 mps 587 mmHg 48%

    Day after tomorrow, 22 June, Saturday

    Time Temperature Precipitation Wind Pressure Humidity
    00:00 +21°C° 0 mm 2 mps 587 mmHg 48%
    01:00 +20°C° 0 mm 2 mps 587 mmHg 48%
    02:00 +21°C° 0 mm 1 mps 586 mmHg 49%
    03:00 +20°C° 0 mm 1 mps 586 mmHg 50%
    04:00 +20°C° 0 mm 1 mps 586 mmHg 51%
    05:00 +19°C° 0 mm 1 mps 586 mmHg 52%
    06:00 +20°C° 0 mm 1 mps 586 mmHg 48%
    07:00 +22°C° 0 mm 1 mps 587 mmHg 44%
    08:00 +23°C° 0 mm 1 mps 588 mmHg 40%
    09:00 +24°C° 0 mm 1 mps 588 mmHg 36%
    10:00 +26°C° 0 mm 1 mps 589 mmHg 32%
    11:00 +27°C° 0 mm 1 mps 589 mmHg 28%
    12:00 +28°C° 0 mm 1 mps 589 mmHg 24%
    13:00 +29°C° 0 mm 2 mps 589 mmHg 20%
    14:00 +30°C° 0 mm 2 mps 590 mmHg 17%
    15:00 +30°C° 0 mm 3 mps 589 mmHg 17%
    16:00 +30°C° 0 mm 3 mps 589 mmHg 18%
    17:00 +30°C° 0 mm 4 mps 589 mmHg 19%
    18:00 +29°C° 0 mm 4 mps 588 mmHg 25%
    19:00 +27°C° 0 mm 5 mps 588 mmHg 31%
    20:00 +24°C° 0 mm 6 mps 587 mmHg 37%
    21:00 +23°C° 0.2 mm 4 mps 587 mmHg 38%
    22:00 +24°C° 0.2 mm 3 mps 587 mmHg 40%
    23:00 +23°C° 0.2 mm 1 mps 587 mmHg 42%

    23 June, Sunday

    Time Temperature Precipitation Wind Pressure Humidity
    00:00 +22°C° 0.1 mm 1 mps 587 mmHg 43%
    01:00 +22°C° 0.1 mm 1 mps 587 mmHg 43%
    02:00 +22°C° 0.1 mm 1 mps 586 mmHg 44%
    03:00 +20°C° 0 mm 2 mps 586 mmHg 45%
    04:00 +20°C° 0 mm 2 mps 586 mmHg 45%
    05:00 +20°C° 0 mm 2 mps 586 mmHg 45%
    06:00 +21°C° 0 mm 2 mps 586 mmHg 40%
    07:00 +23°C° 0 mm 2 mps 587 mmHg 36%
    08:00 +24°C° 0 mm 2 mps 588 mmHg 31%
    09:00 +26°C° 0 mm 2 mps 588 mmHg 29%
    10:00 +27°C° 0 mm 1 mps 589 mmHg 27%
    11:00 +28°C° 0 mm 1 mps 589 mmHg 26%
    12:00 +29°C° 0 mm 2 mps 589 mmHg 22%
    13:00 +30°C° 0 mm 3 mps 589 mmHg 18%
    14:00 +33°C° 0 mm 4 mps 589 mmHg 15%
    15:00 +32°C° 0 mm 4 mps 589 mmHg 17%
    16:00 +30°C° 0 mm 5 mps 588 mmHg 19%
    17:00 +30°C° 0 mm 5 mps 588 mmHg 21%
    18:00 +28°C° 0.1 mm 6 mps 587 mmHg 28%
    19:00 +27°C° 0.1 mm 7 mps 587 mmHg 35%
    20:00 +24°C° 0.1 mm 8 mps 587 mmHg 41%
    21:00 +24°C° 0.1 mm 6 mps 587 mmHg 42%
    22:00 +23°C° 0.1 mm 5 mps 587 mmHg 44%
    23:00 +24°C° 0.1 mm 3 mps 587 mmHg 45%

    24 June, Monday

    Time Temperature Precipitation Wind Pressure Humidity
    00:00 +22°C° 0 mm 3 mps 587 mmHg 44%
    01:00 +22°C° 0 mm 3 mps 587 mmHg 43%
    02:00 +21°C° 0 mm 3 mps 586 mmHg 42%
    03:00 +21°C° 0 mm 2 mps 586 mmHg 42%
    04:00 +20°C° 0 mm 2 mps 586 mmHg 42%
    05:00 +20°C° 0 mm 2 mps 586 mmHg 42%
    06:00 +21°C° 0 mm 2 mps 586 mmHg 40%
    07:00 +23°C° 0 mm 2 mps 587 mmHg 37%
    08:00 +24°C° 0 mm 3 mps 588 mmHg 35%
    09:00 +25°C° 0 mm 2 mps 588 mmHg 32%
    10:00 +27°C° 0 mm 2 mps 588 mmHg 29%
    11:00 +28°C° 0 mm 2 mps 589 mmHg 27%
    12:00 +28°C° 0 mm 3 mps 589 mmHg 26%
    13:00 +29°C° 0 mm 5 mps 588 mmHg 25%
    14:00 +29°C° 0 mm 7 mps 588 mmHg 24%
    15:00 +29°C° 0 mm 7 mps 588 mmHg 23%
    16:00 +30°C° 0 mm 7 mps 589 mmHg 23%
    17:00 +30°C° 0 mm 6 mps 589 mmHg 22%
    18:00 +28°C° 0.1 mm 6 mps 588 mmHg 29%
    19:00 +27°C° 0.1 mm 6 mps 588 mmHg 36%
    20:00 +25°C° 0.1 mm 5 mps 588 mmHg 43%
    21:00 +22°C° 0.6 mm 6 mps 587 mmHg 47%
    22:00 +21°C° 0.6 mm 7 mps 587 mmHg 51%
    23:00 +18°C° 0.6 mm 7 mps 587 mmHg 55%

    25 June, Tuesday

    Time Temperature Precipitation Wind Pressure Humidity
    00:00 +19°C° 0 mm 5 mps 587 mmHg 53%
    01:00 +20°C° 0 mm 4 mps 586 mmHg 50%
    02:00 +20°C° 0 mm 2 mps 586 mmHg 47%
    03:00 +20°C° 0 mm 2 mps 586 mmHg 48%
    04:00 +19°C° 0 mm 2 mps 586 mmHg 48%
    05:00 +19°C° 0 mm 2 mps 586 mmHg 49%
    06:00 +20°C° 0 mm 2 mps 586 mmHg 45%
    07:00 +22°C° 0 mm 1 mps 587 mmHg 41%
    08:00 +23°C° 0 mm 1 mps 588 mmHg 38%
    09:00 +25°C° 0 mm 1 mps 588 mmHg 34%
    10:00 +26°C° 0 mm 2 mps 588 mmHg 30%
    11:00 +28°C° 0 mm 2 mps 589 mmHg 26%
    12:00 +29°C° 0 mm 3 mps 589 mmHg 24%
    13:00 +30°C° 0 mm 4 mps 589 mmHg 21%
    14:00 +30°C° 0 mm 5 mps 589 mmHg 19%
    15:00 +30°C° 0 mm 5 mps 589 mmHg 20%
    16:00 +30°C° 0 mm 4 mps 589 mmHg 21%
    17:00 +30°C° 0 mm 4 mps 589 mmHg 23%
    18:00 +28°C° 0 mm 4 mps 588 mmHg 28%
    19:00 +26°C° 0 mm 4 mps 587 mmHg 32%
    20:00 +25°C° 0 mm 4 mps 587 mmHg 37%
    21:00 +23°C° 0 mm 4 mps 587 mmHg 38%
    22:00 +23°C° 0 mm 4 mps 587 mmHg 40%
    23:00 +22°C° 0 mm 3 mps 587 mmHg 41%
    Show more